Flag for Sudan Weather past 2 weeks in Port Sudan, Sudan

Now
95 °F

Sunny.


Feels Like: 100 °F
Forecast: 82 / 92 °F
Wind: 7 mph from West

Location: Jeddah King Abdul Aziz International Airport

Current Time: Oct 23, 2014 at 2:14:38 PM

Latest Report: Oct 23, 2014 at 1:00 PM


Visibility: 10 mi

Pressure: 29.89 "Hg

Humidity: 41%

Dew point: 68 °F

Location of Port SudanLocation

Historic Weather in Port Sudan — Graph

°F

Port Sudan temperature yesterday

Maximum temperature yesterday: 93 °F (at 12:00 PM)
Minimum temperature yesterday: 79 °F (at 7:00 AM)
Average temperature yesterday: 86 °F

Past Weeks' High & Low Weather Summary

 TemperatureHumidityPressure
High97 °F (Oct 10, 2:00 PM)89% (Oct 9, 4:00 AM)29.92 "Hg (Oct 9, 4:00 AM)
Low77 °F (Oct 19, 4:00 AM)21% (Oct 16, 11:00 AM)29.71 "Hg (Oct 8, 4:00 PM)
Average87 °F59%29.82 "Hg
* Reported Oct 8 1:00 PM — Oct 23 1:00 PM, Port Sudan, Weather by CustomWeather, © 2014

Note: Actual official high and low records may vary slightly from our data, if they occured in-between our weather recording intervals... More about our weather records

Advertising

Port Sudan weather history for previous 24 hours

 ConditionsComfort  
Time TempWeatherWind HumidityBarometerVisibility
1:00 PM
Oct 23
95 °FSunny.7 mph41%29.89 "Hg10 mi
12:00 PM93 °FSunny.2 mph44%29.89 "Hg10 mi
11:00 AM91 °FSunny.7 mph46%29.92 "Hg10 mi
10:00 AM91 °FSunny.5 mph44%29.92 "Hg10 mi
9:00 AM88 °FSunny.2 mph55%29.92 "Hg10 mi
8:00 AM82 °FSunny.5 mph70%29.89 "Hg10 mi
7:00 AM81 °FSunny.No wind74%29.89 "Hg10 mi
6:00 AM81 °FClear.5 mph79%29.86 "Hg10 mi
5:00 AM82 °FClear.5 mph74%29.86 "Hg10 mi
4:00 AM82 °FClear.5 mph74%29.86 "Hg10 mi
3:00 AM82 °FClear.5 mph74%29.86 "Hg10 mi
2:00 AM82 °FClear.5 mph70%29.86 "Hg10 mi
1:00 AM84 °FClear.5 mph66%29.86 "Hg10 mi
12:00 AM84 °FClear.5 mph66%29.89 "Hg10 mi
11:00 PM
Oct 22
84 °FClear.5 mph70%29.89 "Hg10 mi
10:00 PM84 °FClear.6 mph66%29.89 "Hg10 mi
9:00 PM86 °FClear.5 mph62%29.89 "Hg10 mi
8:00 PM86 °FClear.5 mph62%29.86 "Hg10 mi
7:00 PM86 °FClear.9 mph62%29.86 "Hg10 mi
6:00 PM88 °FClear.9 mph55%29.83 "Hg10 mi
5:00 PM90 °FSunny.12 mph52%29.83 "Hg10 mi
4:00 PM91 °FSunny.14 mph49%29.83 "Hg10 mi
3:00 PM91 °FSunny.12 mph49%29.83 "Hg10 mi
2:00 PM91 °FSunny.16 mph46%29.83 "Hg10 mi
Weather by CustomWeather, © 2014

See weather overviewHow to use our weather pages